ZHANGHENG 1-01 (CSES-1)

Last updated on Mon Jun 22 2026 00:03:38 GMT+0000 (Coordinated Universal Time)

1 43194U 18015C 26172.54727091 .00005757 00000+0 26306-3 0 9992 2 43194 97.6879 338.2914 0017139 250.0785 109.8603 15.20857536465304
UTC large
Height (km)
Speed (km/s)
/
Latitude / Longitude
Inclination (degrees)
Orbital Period (minutes)
Azimuth
Elevation
Range (km)
Doppler Factor

Next 0 passes for location: London (51.5072 / 0.1276)

No passes found over London.
ZHANGHENG 1-01 (CSES-1)